Weather History for Delaware, OH

Change the Weather History Date:

Tuesday, December 4, 2012

  Actual Average Record
Temperature  
Mean Temperature 48 °F -  
Max Temperature 60 °F 42 °F 74 °F (1982)
Min Temperature 37 °F 24 °F -2 °F (1966)
Degree Days  
Heating Degree Days 16    
Moisture  
Dew Point 47 °F    
Average Humidity 83    
Maximum Humidity 100    
Minimum Humidity 72    
Precipitation  
Precipitation 0.38 in - - ()
Sea Level Pressure  
Sea Level Pressure 30.08 in    
Wind  
Wind Speed 10 mph (SW)    
Max Wind Speed 16 mph    
Max Gust Speed 25 mph    
Visibility 10 miles    
Events Rain    
Averages and records for this station are not official NWS values.
T = Trace of Precipitation, MM = Missing Value Source: NWS Daily Summary

Daily Weather History Graph

Daily Weather History Graph

Search for Another Location

Airport:

Trip Planner

Search our weather history database for the weather conditions in past years. The results will help you decide how hot, cold, wet, or windy it might be!

Date:

Astronomy

Dec. 04, 2012 Rise Set
Actual Time 7:39 AM EST 5:06 PM EST
Civil Twilight 7:08 AM EST 5:36 PM EST
Nautical Twilight 6:35 AM EST 6:10 PM EST
Astronomical Twilight 6:02 AM EST 6:43 PM EST
Moon 10:53 PM EST (12/4) 11:32 AM EST (12/4)
Length of Visible Light 10h 27m
Length of Day
9h 27m
Waning Gibbous, 69% of the Moon is Illuminated
Dec 4
Waning Gibbous
Dec 6
Last Quarter
Dec 13
New
Dec 20
First Quarter
Dec 28
Full

Hourly Weather History & Observations

Time (EST) Temp. Windchill Dew Point Humidity Pressure Visibility Wind Dir Wind Speed Gust Speed Precip Events Conditions
12:20 AM 55.4 °F - 50.0 °F 82% 30.10 in 10.0 mi South 9.2 mph - N/A   Clear
12:39 AM 55.4 °F - 50.0 °F 82% 30.10 in 10.0 mi South 8.1 mph - N/A   Clear
12:59 AM 55.4 °F - 50.0 °F 82% 30.10 in 10.0 mi South 6.9 mph - N/A   Clear
1:20 AM 55.4 °F - 50.0 °F 82% 30.09 in 10.0 mi South 10.4 mph - N/A   Scattered Clouds
1:39 AM 57.2 °F - 50.0 °F 77% 30.09 in 10.0 mi South 12.7 mph 17.3 mph N/A   Mostly Cloudy
1:59 AM 57.2 °F - 50.0 °F 77% 30.08 in 10.0 mi SSW 15.0 mph 19.6 mph N/A   Mostly Cloudy
2:20 AM 59.0 °F - 50.0 °F 72% 30.09 in 10.0 mi SSW 12.7 mph 18.4 mph N/A   Mostly Cloudy
2:39 AM 59.0 °F - 50.0 °F 72% 30.10 in 10.0 mi SSW 13.8 mph 17.3 mph N/A   Overcast
2:59 AM 57.2 °F - 50.0 °F 77% 30.10 in 10.0 mi SSW 12.7 mph 17.3 mph N/A   Overcast
3:20 AM 57.2 °F - 50.0 °F 77% 30.09 in 10.0 mi SSW 12.7 mph 21.9 mph N/A   Overcast
3:59 AM 55.4 °F - 48.2 °F 77% 30.08 in 10.0 mi SSW 12.7 mph 18.4 mph N/A   Mostly Cloudy
4:19 AM 55.4 °F - 48.2 °F 77% 30.07 in 10.0 mi SSW 12.7 mph 18.4 mph N/A   Mostly Cloudy
4:39 AM 55.4 °F - 48.2 °F 77% 30.07 in 10.0 mi SSW 13.8 mph 17.3 mph N/A   Scattered Clouds
4:59 AM 55.4 °F - 46.4 °F 72% 30.07 in 10.0 mi SSW 13.8 mph 18.4 mph N/A   Clear
5:19 AM 55.4 °F - 46.4 °F 72% 30.07 in 10.0 mi South 11.5 mph - N/A   Scattered Clouds
5:39 AM 55.4 °F - 48.2 °F 77% 30.07 in 10.0 mi SSW 10.4 mph - N/A   Overcast
5:59 AM 55.4 °F - 48.2 °F 77% 30.07 in 10.0 mi SSW 11.5 mph - N/A   Overcast
6:19 AM 55.4 °F - 48.2 °F 77% 30.07 in 10.0 mi SSW 11.5 mph - N/A   Overcast
6:39 AM 55.4 °F - 48.2 °F 77% 30.07 in 10.0 mi South 9.2 mph - N/A   Overcast
7:00 AM 55.4 °F - 48.2 °F 77% 30.07 in 10.0 mi South 8.1 mph - N/A   Overcast
7:19 AM 55.4 °F - 48.2 °F 77% 30.07 in 10.0 mi South 9.2 mph - N/A   Overcast
7:39 AM 55.4 °F - 48.2 °F 77% 30.07 in 10.0 mi South 9.2 mph - N/A   Overcast
8:00 AM 55.4 °F - 48.2 °F 77% 30.07 in 10.0 mi SSW 10.4 mph - N/A   Overcast
8:19 AM 55.4 °F - 48.2 °F 77% 30.07 in 10.0 mi South 8.1 mph 16.1 mph N/A   Overcast
8:39 AM 55.4 °F - 48.2 °F 77% 30.07 in 10.0 mi South 9.2 mph - N/A   Overcast
9:00 AM 55.4 °F - 48.2 °F 77% 30.07 in 10.0 mi South 9.2 mph - N/A   Overcast
9:19 AM 55.4 °F - 50.0 °F 82% 30.07 in 10.0 mi South 10.4 mph - N/A   Overcast
9:39 AM 57.2 °F - 50.0 °F 77% 30.07 in 10.0 mi South 12.7 mph 18.4 mph N/A   Overcast
10:00 AM 59.0 °F - 50.0 °F 72% 30.07 in 10.0 mi SSW 13.8 mph 17.3 mph N/A   Overcast
10:19 AM 59.0 °F - 50.0 °F 72% 30.07 in 10.0 mi SSW 12.7 mph - N/A   Overcast
10:39 AM 59.0 °F - 50.0 °F 72% 30.07 in 10.0 mi SSW 13.8 mph 17.3 mph N/A   Overcast
11:00 AM 59.0 °F - 51.8 °F 77% 30.06 in 10.0 mi SSW 12.7 mph - N/A   Mostly Cloudy
11:19 AM 60.8 °F - 51.8 °F 72% 30.06 in 10.0 mi SSW 13.8 mph 21.9 mph N/A   Mostly Cloudy
11:39 AM 60.8 °F - 51.8 °F 72% 30.05 in 10.0 mi SSW 16.1 mph 24.2 mph N/A   Mostly Cloudy
12:00 PM 60.8 °F - 51.8 °F 72% 30.03 in 10.0 mi SSW 11.5 mph 17.3 mph N/A   Overcast
12:19 PM 60.8 °F - 51.8 °F 72% 30.02 in 10.0 mi SSW 13.8 mph - N/A   Overcast
12:40 PM 60.8 °F - 53.6 °F 77% 30.02 in 10.0 mi SSW 12.7 mph - N/A   Overcast
1:19 PM 60.8 °F - 53.6 °F 77% 30.00 in 10.0 mi SSW 13.8 mph 20.7 mph N/A   Overcast
1:40 PM 60.8 °F - 53.6 °F 77% 29.99 in 10.0 mi SSW 16.1 mph 21.9 mph N/A   Overcast
1:59 PM 60.8 °F - 53.6 °F 77% 29.99 in 10.0 mi SSW 15.0 mph - N/A   Overcast
2:19 PM 60.8 °F - 53.6 °F 77% 29.98 in 10.0 mi SW 13.8 mph 20.7 mph N/A   Overcast
2:40 PM 60.8 °F - 55.4 °F 82% 29.98 in 7.0 mi SW 13.8 mph - N/A Rain Rain
2:59 PM 59.0 °F - 55.4 °F 88% 29.98 in 4.0 mi SSW 11.5 mph - 0.04 in Rain Heavy Rain
3:19 PM 57.2 °F - 53.6 °F 88% 30.00 in 4.0 mi WNW 15.0 mph 25.3 mph 0.08 in Rain Heavy Rain
3:40 PM 51.8 °F - 50.0 °F 94% 30.01 in 5.0 mi NW 13.8 mph 18.4 mph 0.15 in Rain Light Rain
3:59 PM 50.0 °F - 48.2 °F 94% 30.01 in 10.0 mi NW 12.7 mph 18.4 mph 0.15 in   Drizzle
4:19 PM 50.0 °F - 46.4 °F 87% 30.03 in 3.0 mi NW 9.2 mph 16.1 mph 0.04 in Rain Heavy Rain
4:40 PM 46.4 °F 40.7 °F 44.6 °F 93% 30.04 in 5.0 mi NNW 12.7 mph 21.9 mph 0.09 in Rain Rain
4:59 PM 44.6 °F 38.1 °F 42.8 °F 93% 30.06 in 10.0 mi NNW 13.8 mph 23.0 mph 0.10 in Rain Rain
5:19 PM 44.6 °F 39.2 °F 42.8 °F 93% 30.10 in 5.0 mi WNW 10.4 mph 17.3 mph 0.04 in Rain Rain
5:59 PM 42.8 °F 38.0 °F 41.0 °F 93% 30.10 in 10.0 mi NNW 8.1 mph - 0.06 in Rain Rain
6:19 PM 42.8 °F 38.0 °F 41.0 °F 93% 30.12 in 10.0 mi NW 8.1 mph - 0.01 in Rain Rain
6:40 PM 42.8 °F 37.5 °F 39.2 °F 87% 30.12 in 10.0 mi NW 9.2 mph - 0.02 in Rain Light Rain
6:59 PM 42.8 °F 39.3 °F 41.0 °F 93% 30.12 in 10.0 mi NW 5.8 mph - 0.03 in Rain Rain
7:20 PM 42.8 °F 40.1 °F 39.2 °F 87% 30.12 in 10.0 mi NW 4.6 mph - N/A   Light Drizzle
7:39 PM 42.8 °F 41.1 °F 41.0 °F 93% 30.12 in 10.0 mi WNW 3.5 mph - N/A   Light Drizzle
7:59 PM 42.8 °F 41.1 °F 41.0 °F 93% 30.12 in 10.0 mi WNW 3.5 mph - N/A   Overcast
8:20 PM 42.8 °F 40.1 °F 41.0 °F 93% 30.13 in 10.0 mi West 4.6 mph - N/A   Overcast
8:39 PM 42.8 °F 41.1 °F 41.0 °F 93% 30.14 in 10.0 mi West 3.5 mph - N/A   Mostly Cloudy
8:59 PM 42.8 °F 41.1 °F 41.0 °F 93% 30.14 in 10.0 mi West 3.5 mph - N/A   Scattered Clouds
9:20 PM 41.0 °F 39.0 °F 39.2 °F 93% 30.14 in 10.0 mi WSW 3.5 mph - N/A   Clear
9:39 PM 41.0 °F - 39.2 °F 93% 30.15 in 10.0 mi Calm Calm - N/A   Clear
9:59 PM 39.2 °F - 37.4 °F 93% 30.15 in 10.0 mi Calm Calm - N/A   Clear
10:20 PM 37.4 °F - 35.6 °F 93% 30.16 in 10.0 mi Calm Calm - N/A   Clear
10:39 PM 37.4 °F 34.9 °F 37.4 °F 100% 30.16 in 10.0 mi SSW 3.5 mph - N/A   Clear
10:59 PM 39.2 °F 37.0 °F 37.4 °F 93% 30.16 in 10.0 mi SW 3.5 mph - N/A   Clear
11:20 PM 37.4 °F - 37.4 °F 100% 30.17 in 10.0 mi Calm Calm - N/A   Clear
11:39 PM 37.4 °F - 37.4 °F 100% 30.17 in 10.0 mi Calm Calm - N/A   Clear
11:59 PM 37.4 °F - 37.4 °F 100% 30.17 in 10.0 mi Calm Calm - N/A   Clear